Johnstown, PA

6:36 PM EDT on April 24, 2017 (GMT -0400)
Johnstown-Cambria County

Weather History for KJST - December, 2014

Change the Weather History Date:

Wednesday, December 3, 2014

  Actual Average Record
Temperature  
Mean Temperature 36 °F 32 °F  
Max Temperature 42 °F 38 °F 72 °F (1982)
Min Temperature 29 °F 26 °F 1 °F (1976)
Degree Days  
Heating Degree Days 29 33  
Month to date heating degree days 87 97  
Since 1 July heating degree days 1598 1554  
Cooling Degree Days 0 0  
Month to date cooling degree days 0 0  
Year to date cooling degree days 341 382  
Moisture  
Dew Point 33 °F    
Average Humidity 86    
Maximum Humidity 100    
Minimum Humidity 72    
Precipitation  
Precipitation T in 0.10 in 2.00 in (1991)
Month to date precipitation 0.38 0.29  
Year to date precipitation 32.00 31.34  
Sea Level Pressure  
Sea Level Pressure 30.10 in    
Wind  
Wind Speed 15 mph (WSW)    
Max Wind Speed 30 mph    
Max Gust Speed 39 mph    
Visibility 5 miles    
Events Fog , Rain    
T = Trace of Precipitation, MM = Missing Value Source: NWS Daily Summary

Daily Weather History Graph

Daily Weather History Graph

Search for Another Location

Airport or City:

Trip Planner

Search our weather history database for the weather conditions in past years. The results will help you decide how hot, cold, wet, or windy it might be!

Date:

Astronomy

Dec. 03, 2014 Rise Set
Actual Time 7:20 AM EST 4:49 PM EST
Civil Twilight 6:50 AM EST 5:19 PM EST
Nautical Twilight 6:16 AM EST 5:53 PM EST
Astronomical Twilight 5:43 AM EST 6:26 PM EST
Moon 3:08 PM EST (12/3) 4:05 AM EST (12/3)
Length of Visible Light 10h 29m
Length of Day
9h 28m
Waxing Gibbous, 91% of the Moon is Illuminated
Dec 3
Waxing Gibbous
Dec 6
Full
Dec 14
Last Quarter
Dec 21
New
Dec 28
First Quarter

Hourly Weather History & Observations

Time (EST) Temp. Windchill Dew Point Humidity Pressure Visibility Wind Dir Wind Speed Gust Speed Precip Events Conditions
12:43 AM 34.0 °F 28.0 °F 32.0 °F 92% 30.09 in 10.0 mi SW 6.9 mph - N/A   Overcast
12:54 AM 34.0 °F 28.0 °F 32.0 °F 92% 30.17 in 8.0 mi SSW 6.9 mph - 0.00 in Rain Light Rain
1:54 AM 35.1 °F 29.3 °F 33.1 °F 92% 30.14 in 6.0 mi South 6.9 mph - 0.00 in Rain Light Rain
2:34 AM 34.0 °F 28.8 °F 32.0 °F 92% 30.07 in 1.5 mi West 5.8 mph - 0.00 in   Overcast
2:44 AM 33.1 °F 28.7 °F 32.0 °F 96% 30.07 in 0.5 mi WSW 4.6 mph - 0.00 in Fog Fog
2:54 AM 34.0 °F 28.8 °F 32.0 °F 92% 30.13 in 0.8 mi SW 5.8 mph - 0.00 in   Overcast
3:01 AM 35.1 °F 30.1 °F 34.0 °F 96% 30.06 in 2.0 mi SSW 5.8 mph - N/A   Overcast
3:08 AM 34.0 °F 27.2 °F 33.1 °F 96% 30.06 in 5.0 mi West 8.1 mph - 0.00 in Rain Light Rain
3:17 AM 34.0 °F 28.8 °F 33.1 °F 96% 30.06 in 2.5 mi West 5.8 mph - 0.00 in   Overcast
3:25 AM 34.0 °F 29.8 °F 33.1 °F 96% 30.05 in 4.0 mi WSW 4.6 mph - 0.00 in   Overcast
3:54 AM 39.0 °F 32.3 °F 37.0 °F 93% 30.11 in 7.0 mi SSW 10.4 mph - 0.00 in   Overcast
4:16 AM 37.9 °F 32.7 °F 37.0 °F 97% 30.04 in 2.5 mi WSW 6.9 mph - N/A   Overcast
4:23 AM 37.0 °F 31.6 °F 36.0 °F 96% 30.04 in 0.8 mi SW 6.9 mph - N/A   Overcast
4:34 AM 39.9 °F 33.9 °F 39.0 °F 97% 30.03 in 2.5 mi SSW 9.2 mph - N/A   Overcast
4:43 AM 41.0 °F 34.7 °F 39.0 °F 93% 30.03 in 2.5 mi SSW 10.4 mph - N/A   Overcast
4:52 AM 42.8 °F 37.5 °F 39.2 °F 87% 30.04 in 1.5 mi SW 9.2 mph - N/A   Overcast
4:54 AM 42.1 °F 36.6 °F 39.9 °F 92% 30.09 in 1.5 mi SW 9.2 mph - N/A   Overcast
5:12 AM 39.9 °F 35.1 °F 39.0 °F 97% 30.04 in 0.2 mi WSW 6.9 mph - N/A Fog Fog
5:54 AM 39.0 °F 32.8 °F 37.0 °F 93% 30.10 in 0.2 mi SW 9.2 mph - 0.00 in Fog Fog
6:54 AM 39.9 °F 33.4 °F 39.0 °F 97% 30.09 in 0.2 mi SW 10.4 mph - N/A Fog Fog
7:09 AM 39.9 °F 32.5 °F 39.0 °F 97% 30.03 in 0.8 mi SW 12.7 mph - N/A   Mist
7:16 AM 39.9 °F 32.9 °F 39.0 °F 97% 30.03 in 1.0 mi SW 11.5 mph - N/A   Mist
7:24 AM 39.9 °F 33.9 °F 39.0 °F 97% 30.03 in 0.5 mi SW 9.2 mph - N/A Fog Fog
7:33 AM 39.9 °F 33.4 °F 39.0 °F 97% 30.03 in 0.2 mi SW 10.4 mph - N/A Fog Fog
7:54 AM 39.9 °F 35.1 °F 39.0 °F 97% 30.09 in 0.2 mi SW 6.9 mph - N/A Fog Fog
8:54 AM 41.0 °F 33.5 °F 39.9 °F 96% 30.07 in 0.2 mi SW 13.8 mph - N/A Fog Fog
9:08 AM 41.0 °F 33.1 °F 39.9 °F 96% 30.02 in 0.8 mi SW 15.0 mph 21.9 mph N/A   Mist
9:15 AM 41.0 °F 33.1 °F 39.9 °F 96% 30.01 in 2.0 mi SW 15.0 mph - N/A   Overcast
9:22 AM 41.0 °F 33.1 °F 39.9 °F 96% 30.02 in 5.0 mi SW 15.0 mph 23.0 mph N/A   Overcast
9:54 AM 41.0 °F 32.8 °F 39.9 °F 96% 30.08 in 10.0 mi WSW 16.1 mph - N/A   Overcast
10:54 AM 42.1 °F 34.2 °F 39.0 °F 89% 30.06 in 10.0 mi WSW 16.1 mph 25.3 mph N/A   Overcast
11:25 AM 41.0 °F 31.4 °F 39.0 °F 93% 30.00 in 2.0 mi WSW 21.9 mph 31.1 mph 0.00 in Rain Light Rain
11:39 AM 41.0 °F 32.8 °F 39.0 °F 93% 30.00 in 3.0 mi West 16.1 mph 25.3 mph 0.00 in Rain Light Rain
11:54 AM 39.9 °F 29.7 °F 37.9 °F 93% 30.05 in 4.0 mi West 23.0 mph 36.8 mph 0.00 in Rain Light Rain
12:33 PM 37.9 °F 27.9 °F 36.0 °F 93% 30.01 in 2.5 mi West 19.6 mph 28.8 mph 0.00 in Rain Light Rain
12:42 PM 37.0 °F 27.0 °F 36.0 °F 96% 30.01 in 1.2 mi West 18.4 mph 25.3 mph 0.00 in Rain Light Rain
12:54 PM 37.0 °F 25.9 °F 35.1 °F 93% 30.06 in 3.0 mi West 23.0 mph 36.8 mph 0.00 in Rain Light Rain
1:16 PM 36.0 °F 26.0 °F 34.0 °F 93% 30.01 in 5.0 mi West 17.3 mph 29.9 mph 0.00 in   Overcast
1:32 PM 36.0 °F 23.7 °F 34.0 °F 93% 30.02 in 2.5 mi West 26.5 mph 33.4 mph 0.00 in   Overcast
1:40 PM 35.1 °F 23.8 °F 33.1 °F 92% 30.03 in 1.8 mi West 20.7 mph 33.4 mph 0.00 in   Overcast
1:54 PM 34.0 °F 21.0 °F 32.0 °F 92% 30.10 in 1.8 mi West 26.5 mph 39.1 mph 0.00 in   Overcast
1:59 PM 34.0 °F 21.3 °F 32.0 °F 92% 30.05 in 3.0 mi West 25.3 mph 39.1 mph N/A   Overcast
2:09 PM 33.1 °F 20.3 °F 32.0 °F 96% 30.06 in 2.0 mi West 24.2 mph 34.5 mph N/A   Overcast
2:24 PM 33.1 °F 20.6 °F 30.9 °F 92% 30.06 in 4.0 mi West 23.0 mph 32.2 mph N/A   Overcast
2:31 PM 33.1 °F 21.2 °F 30.9 °F 92% 30.06 in 6.0 mi West 20.7 mph 32.2 mph N/A   Overcast
2:54 PM 34.0 °F 23.0 °F 30.0 °F 85% 30.13 in 10.0 mi West 18.4 mph 33.4 mph N/A   Overcast
3:54 PM 33.1 °F 22.2 °F 28.9 °F 85% 30.15 in 10.0 mi West 17.3 mph 24.2 mph N/A   Overcast
4:54 PM 33.1 °F 22.6 °F 28.0 °F 82% 30.18 in 10.0 mi WSW 16.1 mph 24.2 mph N/A   Overcast
5:15 PM 33.1 °F 24.9 °F 27.0 °F 78% 30.14 in 10.0 mi WSW 10.4 mph 20.7 mph N/A   Overcast
5:54 PM 32.0 °F 22.5 °F 25.0 °F 75% 30.23 in 10.0 mi West 12.7 mph - N/A   Overcast
6:54 PM 30.9 °F 18.1 °F 25.0 °F 79% 30.23 in 10.0 mi West 21.9 mph 28.8 mph N/A   Mostly Cloudy
7:54 PM 30.0 °F 17.5 °F 24.1 °F 79% 30.25 in 10.0 mi West 19.6 mph 32.2 mph N/A   Mostly Cloudy
8:41 PM 30.0 °F 18.3 °F 23.0 °F 75% 30.19 in 10.0 mi West 17.3 mph 27.6 mph N/A   Scattered Clouds
8:52 PM 30.2 °F 19.3 °F 24.8 °F 80% 30.19 in 10.0 mi West 15.0 mph 26.5 mph N/A   Mostly Cloudy
8:54 PM 30.0 °F 19.5 °F 24.1 °F 79% 30.25 in 10.0 mi West 13.8 mph 26.5 mph N/A   Mostly Cloudy
9:01 PM 30.0 °F 18.3 °F 24.1 °F 79% 30.19 in 10.0 mi West 17.3 mph 23.0 mph N/A   Scattered Clouds
9:11 PM 30.0 °F 18.3 °F 24.1 °F 79% 30.19 in 10.0 mi West 17.3 mph 28.8 mph N/A   Mostly Cloudy
9:19 PM 28.9 °F 17.3 °F 24.1 °F 82% 30.20 in 10.0 mi West 16.1 mph 28.8 mph N/A   Scattered Clouds
9:34 PM 30.0 °F 19.1 °F 24.1 °F 79% 30.19 in 10.0 mi West 15.0 mph 29.9 mph N/A   Mostly Cloudy
9:46 PM 30.0 °F 17.2 °F 24.1 °F 79% 30.19 in 10.0 mi West 20.7 mph 26.5 mph N/A   Mostly Cloudy
9:54 PM 30.0 °F 17.5 °F 24.1 °F 79% 30.25 in 10.0 mi West 19.6 mph 26.5 mph N/A   Mostly Cloudy
10:54 PM 30.0 °F 21.7 °F 24.1 °F 79% 30.28 in 10.0 mi WSW 9.2 mph 24.2 mph N/A   Overcast
11:54 PM 30.0 °F 21.1 °F 24.1 °F 79% 30.30 in 10.0 mi WSW 10.4 mph 23.0 mph N/A   Overcast